SCOT36 YBOK-YBOK

Flight info

Callsign SCOT36
Flight time 0h 11m
Altitude 2500
Route DCT OK OK DCT
Aircraft EC35/L-VGD/C

Departure

Time 2026-04-25 03:14
Airport Oakey Army Aviation Centre (YBOK)

Arrival

Time 2026-04-25 03:25
Airport Oakey Army Aviation Centre (YBOK)
Time Latitude Longitude Altitude Speed Heading
2026-04-25 02:58 -27.41370 151.73397 1333 ft 0 kts 100°
2026-04-25 03:05 -27.41280 151.73325 1333 ft 0 kts 87°
2026-04-25 03:06 -27.41280 151.73330 1333 ft 2 kts 87°
2026-04-25 03:08 -27.41283 151.73359 1351 ft 22 kts 89°
2026-04-25 03:08 -27.41231 151.73500 1344 ft 23 kts 116°
2026-04-25 03:08 -27.41271 151.73747 1370 ft 31 kts 111°
2026-04-25 03:08 -27.41380 151.74062 1484 ft 59 kts 148°
2026-04-25 03:09 -27.41851 151.74036 1635 ft 85 kts 197°
2026-04-25 03:09 -27.42199 151.73476 1685 ft 108 kts 261°
2026-04-25 03:09 -27.42098 151.72583 1725 ft 123 kts 286°
2026-04-25 03:09 -27.41836 151.71619 1703 ft 133 kts 303°
2026-04-25 03:10 -27.41005 151.71349 1794 ft 130 kts
2026-04-25 03:10 -27.40658 151.72044 1689 ft 127 kts 105°
2026-04-25 03:10 -27.40781 151.72823 1477 ft 95 kts 99°
2026-04-25 03:10 -27.40872 151.73492 1381 ft 87 kts 103°
2026-04-25 03:11 -27.41021 151.74313 1541 ft 119 kts 103°
2026-04-25 03:11 -27.41202 151.75220 1733 ft 122 kts 103°
2026-04-25 03:11 -27.41639 151.76021 1775 ft 125 kts 145°
2026-04-25 03:11 -27.42360 151.76618 1805 ft 130 kts 148°
2026-04-25 03:12 -27.43113 151.77172 1777 ft 124 kts 150°
2026-04-25 03:12 -27.43830 151.77597 1718 ft 108 kts 155°
2026-04-25 03:12 -27.44473 151.77676 1728 ft 93 kts 226°
2026-04-25 03:12 -27.44405 151.77082 1702 ft 86 kts 337°
2026-04-25 03:13 -27.43980 151.77367 1732 ft 83 kts 91°
2026-04-25 03:13 -27.44383 151.77692 1769 ft 86 kts 203°
2026-04-25 03:13 -27.44508 151.77131 1768 ft 89 kts 313°
2026-04-25 03:13 -27.43961 151.77193 1734 ft 96 kts 45°
2026-04-25 03:14 -27.43453 151.77762 1712 ft 113 kts 44°
2026-04-25 03:14 -27.42865 151.78399 1786 ft 116 kts 43°
2026-04-25 03:14 -27.42280 151.78940 1867 ft 97 kts 15°
2026-04-25 03:14 -27.41768 151.78718 1945 ft 82 kts 293°
2026-04-25 03:15 -27.41919 151.78174 1946 ft 80 kts 208°
2026-04-25 03:15 -27.42432 151.78315 1939 ft 88 kts 124°
2026-04-25 03:15 -27.42385 151.78959 1908 ft 90 kts 42°
2026-04-25 03:15 -27.41830 151.79008 1904 ft 85 kts 320°
2026-04-25 03:16 -27.41696 151.78397 1837 ft 93 kts 264°
2026-04-25 03:16 -27.41834 151.77725 1900 ft 86 kts 247°
2026-04-25 03:16 -27.42081 151.76986 1510 ft 104 kts 258°
2026-04-25 03:16 -27.42053 151.76397 1422 ft 66 kts 284°
2026-04-25 03:17 -27.42007 151.75930 1421 ft 54 kts 219°
2026-04-25 03:17 -27.42354 151.75791 1395 ft 59 kts 198°
2026-04-25 03:17 -27.42781 151.75733 1391 ft 62 kts 173°
2026-04-25 03:17 -27.42850 151.76152 1410 ft 64 kts 89°
2026-04-25 03:18 -27.42735 151.76585 1473 ft 56 kts
2026-04-25 03:18 -27.42310 151.76502 1388 ft 73 kts 349°
2026-04-25 03:18 -27.41711 151.76254 1415 ft 110 kts 338°
2026-04-25 03:18 -27.40968 151.75951 1441 ft 115 kts 340°
2026-04-25 03:19 -27.40212 151.75653 1629 ft 111 kts 340°
2026-04-25 03:19 -27.39460 151.75373 1775 ft 115 kts 341°
2026-04-25 03:19 -27.38723 151.75062 1800 ft 113 kts 341°
2026-04-25 03:19 -27.37977 151.74781 1753 ft 116 kts 341°
2026-04-25 03:20 -27.37170 151.74487 1805 ft 117 kts 342°
2026-04-25 03:20 -27.36497 151.74253 1864 ft 90 kts 343°
2026-04-25 03:20 -27.36031 151.74413 1980 ft 79 kts 85°
2026-04-25 03:20 -27.36437 151.74648 2015 ft 90 kts 225°
2026-04-25 03:21 -27.36299 151.74164 1965 ft 77 kts
2026-04-25 03:21 -27.36187 151.74557 1993 ft 65 kts 159°
2026-04-25 03:21 -27.36589 151.74414 1846 ft 79 kts 199°
2026-04-25 03:21 -27.36844 151.74881 1636 ft 90 kts 59°
2026-04-25 03:22 -27.36319 151.74916 1661 ft 89 kts 309°
2026-04-25 03:22 -27.36416 151.74298 1673 ft 91 kts 213°
2026-04-25 03:22 -27.36952 151.74472 1686 ft 93 kts 115°
2026-04-25 03:22 -27.36724 151.75044 1738 ft 93 kts 19°
2026-04-25 03:23 -27.36126 151.74849 1779 ft 94 kts 301°
2026-04-25 03:23 -27.36285 151.74158 1839 ft 103 kts 234°
2026-04-25 03:23 -27.36756 151.73486 1808 ft 117 kts 233°
2026-04-25 03:23 -27.37259 151.72754 1917 ft 114 kts 233°
2026-04-25 03:24 -27.37725 151.72065 1945 ft 109 kts 234°
2026-04-25 03:24 -27.38270 151.71529 1994 ft 108 kts 200°
2026-04-25 03:24 -27.39009 151.71281 1975 ft 114 kts 198°
2026-04-25 03:24 -27.39785 151.71048 1912 ft 111 kts 194°
2026-04-25 03:25 -27.40510 151.71048 1823 ft 106 kts 146°
2026-04-25 03:25 -27.40842 151.71783 1584 ft 110 kts 102°
2026-04-25 03:25 -27.40926 151.72474 1392 ft 50 kts 108°
2026-04-25 03:25 -27.40965 151.72760 1343 ft 31 kts 114°
2026-04-25 03:26 -27.41067 151.72839 1343 ft 19 kts 202°
2026-04-25 03:26 -27.41146 151.72942 1334 ft 17 kts 97°
2026-04-25 03:26 -27.41174 151.73111 1338 ft 24 kts 90°
2026-04-25 03:26 -27.41193 151.73255 1333 ft 0 kts 114°
2026-04-25 03:27 -27.41214 151.73289 1339 ft 4 kts 184°
2026-04-25 03:27 -27.41251 151.73325 1338 ft 7 kts 103°
2026-04-25 03:27 -27.41279 151.73368 1338 ft 7 kts 151°
2026-04-25 03:27 -27.41290 151.73393 1337 ft 4 kts 99°
2026-04-25 03:28 -27.41289 151.73402 1333 ft 0 kts 97°
2026-04-25 03:53 -27.41297 151.73401 1335 ft 14 kts 97°
2026-04-25 03:53 -27.41350 151.73394 1336 ft 13 kts 97°
2026-04-25 03:53 -27.41411 151.73384 1333 ft 0 kts 97°